This is the latest recevied weather packets stored in our database for station/object KC4JES. If no packets are shown the sender has not sent any weather packets the latest 10 day(s).
| Time | Temp. | Humidity | Pressure | Rain* | Wind** | Luminosity | Snow |
|---|---|---|---|---|---|---|---|
| 1777750844 | 21.67° C | 89% | 1010 hPa | 0 mm | - | 107 W/m² | - |
| 1777750542 | 22.22° C | 88% | 1009.7 hPa | 0 mm | - | 86 W/m² | - |
| 1777750238 | 22.22° C | 88% | 1009.8 hPa | 0 mm | - | 78 W/m² | - |
| 1777749934 | 22.22° C | 90% | 1009.4 hPa | 0 mm | - | 138 W/m² | - |
| 1777749632 | 22.22° C | 91% | 1009.3 hPa | 0 mm | - | 140 W/m² | - |
| 1777749328 | 22.78° C | 93% | 1009.2 hPa | 0 mm | - | 70 W/m² | - |
| 1777749026 | 22.78° C | 93% | 1009.2 hPa | 0 mm | - | 69 W/m² | - |
| 1777748724 | 22.78° C | 93% | 1009.5 hPa | 0 mm | - | 42 W/m² | - |
| 1777748421 | 22.78° C | 94% | 1009.7 hPa | 0 mm | - | 51 W/m² | - |
| 1777748115 | 22.78° C | 95% | 1009.7 hPa | 0 mm | - | 63 W/m² | - |
| 1777747812 | 22.78° C | 96% | 1009.5 hPa | 0 mm | - | 170 W/m² | - |
| 1777747508 | 22.78° C | 95% | 1009.2 hPa | 0 mm | - | 44 W/m² | - |
| 1777747204 | 22.78° C | 95% | 1009.1 hPa | 0 mm | - | 44 W/m² | - |
| 1777746901 | 22.78° C | 95% | 1009.2 hPa | 0 mm | - | 85 W/m² | - |
| 1777746595 | 22.78° C | 95% | 1009.4 hPa | 0 mm | - | 57 W/m² | - |
| 1777746292 | 22.78° C | 95% | 1009.6 hPa | 0 mm | - | 70 W/m² | - |
| 1777745988 | 22.22° C | 95% | 1009.4 hPa | 0 mm | - | 63 W/m² | - |
| 1777745686 | 22.22° C | 95% | 1009.8 hPa | 0 mm | - | 33 W/m² | - |
| 1777745385 | 22.22° C | 95% | 1009.5 hPa | 0.51 mm | - | 65 W/m² | - |
| 1777745081 | 22.22° C | 95% | 1010 hPa | 0.51 mm | - | 33 W/m² | - |
| 1777744778 | 22.22° C | 95% | 1010 hPa | 0 mm | - | 24 W/m² | - |
| 1777744472 | 22.22° C | 95% | 1009.9 hPa | 0 mm | - | 19 W/m² | - |
| 1777744169 | 22.22° C | 95% | 1010.2 hPa | 0.51 mm | - | 40 W/m² | - |
| 1777743866 | 22.22° C | 95% | 1009.8 hPa | 0.51 mm | - | 173 W/m² | - |
| 1777743562 | 22.22° C | 94% | 1009.6 hPa | 1.27 mm | - | 80 W/m² | - |
* Rain latest hour (hover to see other rain measurements)
** Current wind speed in m/s (hover to see current wind gust speed)